St. Cloud, MN

3:10 PM CST on December 11, 2017 (GMT -0600)
Saint Cloud Regional

Weather History for KSTC - December, 2014

Change the Weather History Date:

Tuesday, December 23, 2014

  Actual Average Record
Temperature  
Mean Temperature 38 °F 14 °F  
Max Temperature 39 °F 23 °F 52 °F (1899)
Min Temperature 36 °F 5 °F -30 °F (1983)
Degree Days  
Heating Degree Days 27 51  
Month to date heating degree days 891 1104  
Since 1 July heating degree days 2823 3029  
Cooling Degree Days 0 0  
Month to date cooling degree days 0 0  
Year to date cooling degree days 597 465  
Moisture  
Dew Point 32 °F    
Average Humidity 83    
Maximum Humidity 89    
Minimum Humidity 76    
Precipitation  
Precipitation T in 0.02 in 0.80 in (1900)
Month to date precipitation 0.68 0.61  
Year to date precipitation 36.65 27.52  
Snow  
Snow 0.00 in 0.30 in 8.00 in (1900)
Month to date snowfall 1.4 6.9  
Since 1 July snowfall 19.0 16.1  
Snow Depth 0.00 in    
Sea Level Pressure  
Sea Level Pressure 29.81 in    
Wind  
Wind Speed 11 mph (North)    
Max Wind Speed 17 mph    
Max Gust Speed 24 mph    
Visibility 8 miles    
Events      
T = Trace of Precipitation, MM = Missing Value Source: NWS Daily Summary

Daily Weather History Graph

Daily Weather History Graph

Search for Another Location

Airport or City:

Trip Planner

Search our weather history database for the weather conditions in past years. The results will help you decide how hot, cold, wet, or windy it might be!

Date:

Astronomy

Dec. 23, 2014 Rise Set
Actual Time 7:54 AM CST 4:36 PM CST
Civil Twilight 7:20 AM CST 5:10 PM CST
Nautical Twilight 6:42 AM CST 5:48 PM CST
Astronomical Twilight 6:06 AM CST 6:24 PM CST
Moon 8:54 AM CST (12/23) 6:58 PM CST (12/23)
Length of Visible Light 9h 50m
Length of Day
8h 42m
Waxing Crescent, 4% of the Moon is Illuminated
Dec 23
Waxing Crescent
Dec 28
First Quarter
Jan 4
Full
Jan 13
Last Quarter
Jan 20
New

Hourly Weather History & Observations

Time (CST) Temp. Windchill Dew Point Humidity Pressure Visibility Wind Dir Wind Speed Gust Speed Precip Events Conditions
12:53 AM 37.0 °F 30.4 °F 32.0 °F 82% 29.71 in 4.0 mi NE 9.2 mph - 0.00 in   Haze
1:14 AM 36.0 °F 29.6 °F 32.0 °F 86% 29.66 in 4.0 mi NE 8.1 mph - N/A   Overcast
1:53 AM 36.0 °F 29.0 °F 32.0 °F 86% 29.71 in 4.0 mi NE 9.2 mph - N/A   Overcast
2:39 AM 37.0 °F 30.4 °F 32.0 °F 82% 29.67 in 5.0 mi NE 9.2 mph - N/A   Haze
2:53 AM 37.0 °F 31.0 °F 32.0 °F 82% 29.72 in 5.0 mi NE 8.1 mph - N/A   Haze
3:53 AM 37.0 °F 30.4 °F 32.0 °F 82% 29.72 in 6.0 mi NNE 9.2 mph - N/A   Haze
4:14 AM 37.0 °F 30.4 °F 32.0 °F 82% 29.67 in 6.0 mi NNE 9.2 mph - N/A   Haze
4:53 AM 37.0 °F 31.0 °F 32.0 °F 82% 29.72 in 7.0 mi NNE 8.1 mph - N/A   Overcast
5:53 AM 37.0 °F 30.4 °F 32.0 °F 82% 29.74 in 7.0 mi NNE 9.2 mph - N/A   Overcast
6:53 AM 37.0 °F 29.8 °F 32.0 °F 82% 29.75 in 8.0 mi North 10.4 mph - N/A   Overcast
7:53 AM 37.0 °F 30.4 °F 32.0 °F 82% 29.77 in 8.0 mi North 9.2 mph 18.4 mph N/A   Overcast
8:53 AM 37.0 °F 29.3 °F 30.9 °F 79% 29.78 in 7.0 mi North 11.5 mph - N/A   Overcast
9:53 AM 37.0 °F 29.8 °F 30.9 °F 79% 29.81 in 7.0 mi North 10.4 mph - N/A   Overcast
10:53 AM 37.0 °F 29.3 °F 30.9 °F 79% 29.82 in 7.0 mi North 11.5 mph - N/A   Overcast
11:53 AM 37.0 °F 28.5 °F 30.9 °F 79% 29.81 in 9.0 mi North 13.8 mph - N/A   Overcast
12:29 PM 37.9 °F 30.0 °F 30.9 °F 76% 29.76 in 10.0 mi North 12.7 mph - N/A   Overcast
12:53 PM 37.9 °F 29.6 °F 30.9 °F 76% 29.81 in 10.0 mi North 13.8 mph 23.0 mph N/A   Overcast
1:53 PM 37.9 °F 30.0 °F 32.0 °F 79% 29.81 in 9.0 mi North 12.7 mph 20.7 mph N/A   Overcast
2:16 PM 37.9 °F 30.5 °F 32.0 °F 79% 29.77 in 8.0 mi North 11.5 mph 20.7 mph N/A   Overcast
2:31 PM 39.0 °F 31.4 °F 32.0 °F 76% 29.77 in 9.0 mi North 12.7 mph - N/A   Overcast
2:53 PM 39.0 °F 31.8 °F 32.0 °F 76% 29.83 in 10.0 mi North 11.5 mph - N/A   Overcast
3:45 PM 37.9 °F 29.6 °F 32.0 °F 79% 29.79 in 10.0 mi North 13.8 mph - N/A   Overcast
3:53 PM 37.9 °F 30.0 °F 32.0 °F 79% 29.85 in 9.0 mi North 12.7 mph - N/A   Overcast
4:37 PM 37.0 °F 29.8 °F 32.0 °F 82% 29.81 in 10.0 mi NNW 10.4 mph - N/A   Overcast
4:53 PM 37.0 °F 29.3 °F 32.0 °F 82% 29.87 in 10.0 mi North 11.5 mph - N/A   Overcast
5:53 PM 37.0 °F 28.9 °F 32.0 °F 82% 29.88 in 10.0 mi North 12.7 mph - N/A   Overcast
6:29 PM 37.0 °F 29.3 °F 32.0 °F 82% 29.84 in 10.0 mi North 11.5 mph - N/A   Overcast
6:53 PM 37.0 °F 29.3 °F 32.0 °F 82% 29.90 in 10.0 mi NNW 11.5 mph - N/A   Overcast
7:03 PM 37.0 °F 29.3 °F 32.0 °F 82% 29.84 in 10.0 mi NNW 11.5 mph - N/A   Overcast
7:53 PM 37.0 °F 29.3 °F 32.0 °F 82% 29.91 in 10.0 mi NNW 11.5 mph - N/A   Overcast
8:53 PM 37.0 °F 29.8 °F 30.9 °F 79% 29.93 in 10.0 mi NNW 10.4 mph - N/A   Overcast
9:30 PM 37.0 °F 31.0 °F 30.9 °F 79% 29.87 in 10.0 mi NNW 8.1 mph - N/A   Overcast
9:53 PM 37.0 °F 29.8 °F 30.9 °F 79% 29.92 in 10.0 mi NNW 10.4 mph - N/A   Overcast
10:53 PM 37.0 °F 30.4 °F 30.9 °F 79% 29.93 in 10.0 mi NNW 9.2 mph - N/A   Overcast
11:09 PM 37.0 °F 29.3 °F 30.9 °F 79% 29.88 in 10.0 mi NNW 11.5 mph - N/A   Overcast
11:45 PM 36.0 °F 29.0 °F 30.9 °F 82% 29.88 in 10.0 mi NNW 9.2 mph - N/A   Overcast
11:53 PM 36.0 °F 29.0 °F 30.9 °F 82% 29.94 in 10.0 mi NNW 9.2 mph - N/A   Overcast